TimeMST,TemperatureF,Dew PointF,Humidity,Sea Level PressureIn,VisibilityMPH,Wind Direction,Wind SpeedMPH,Gust SpeedMPH,PrecipitationIn,Events,Conditions,WindDirDegrees,DateUTC
12:15 AM,44.6,42.8,93,29.71,10.0,SSE,3.5,-,N/A,,Overcast,150,2012-12-12 07:15:00
12:35 AM,42.8,41.0,93,29.71,10.0,SE,4.6,-,N/A,,Mostly Cloudy,140,2012-12-12 07:35:00
12:55 AM,42.8,41.0,93,29.71,10.0,SSE,5.8,-,N/A,,Overcast,150,2012-12-12 07:55:00
1:15 AM,42.8,41.0,93,29.72,10.0,Calm,Calm,-,N/A,,Overcast,0,2012-12-12 08:15:00
1:35 AM,42.8,41.0,93,29.72,10.0,SE,5.8,-,N/A,,Overcast,140,2012-12-12 08:35:00
1:55 AM,42.8,41.0,93,29.72,10.0,SE,5.8,-,N/A,,Overcast,130,2012-12-12 08:55:00
2:15 AM,42.8,41.0,93,29.73,10.0,SSE,3.5,-,N/A,,Overcast,160,2012-12-12 09:15:00
2:35 AM,42.8,41.0,93,29.73,10.0,SE,5.8,-,N/A,,Mostly Cloudy,130,2012-12-12 09:35:00
2:55 AM,41.0,41.0,100,29.73,10.0,SE,4.6,-,N/A,,Mostly Cloudy,140,2012-12-12 09:55:00
3:15 AM,41.0,41.0,100,29.74,10.0,SE,4.6,-,N/A,,Scattered Clouds,130,2012-12-12 10:15:00
3:35 AM,42.8,41.0,93,29.75,10.0,SSE,4.6,-,N/A,,Mostly Cloudy,160,2012-12-12 10:35:00
3:55 AM,42.8,41.0,93,29.75,10.0,SSE,4.6,-,N/A,Rain,Light Rain,160,2012-12-12 10:55:00
4:15 AM,42.8,41.0,93,29.75,10.0,SE,4.6,-,N/A,,Mostly Cloudy,130,2012-12-12 11:15:00
4:35 AM,41.0,41.0,100,29.75,10.0,SSE,5.8,-,N/A,,Mostly Cloudy,160,2012-12-12 11:35:00
4:55 AM,42.8,41.0,93,29.75,7.0,Calm,Calm,-,0.02,Rain,Light Rain,0,2012-12-12 11:55:00
5:15 AM,41.0,41.0,100,29.75,10.0,ESE,4.6,-,N/A,,Mostly Cloudy,120,2012-12-12 12:15:00
5:35 AM,41.0,41.0,100,29.76,7.0,SSE,3.5,-,N/A,Rain,Rain,150,2012-12-12 12:35:00
5:55 AM,41.0,41.0,100,29.77,10.0,Calm,Calm,-,0.01,,Overcast,0,2012-12-12 12:55:00
6:15 AM,41.0,41.0,100,29.77,10.0,ESE,3.5,-,N/A,,Mostly Cloudy,120,2012-12-12 13:15:00
6:35 AM,42.8,41.0,93,29.77,10.0,SE,6.9,-,N/A,,Mostly Cloudy,140,2012-12-12 13:35:00
6:55 AM,42.8,41.0,93,29.77,10.0,SE,5.8,-,N/A,,Overcast,130,2012-12-12 13:55:00
7:15 AM,42.8,41.0,93,29.78,10.0,SE,3.5,-,N/A,,Overcast,130,2012-12-12 14:15:00
7:35 AM,42.8,41.0,93,29.79,10.0,Calm,Calm,-,N/A,Rain,Rain,0,2012-12-12 14:35:00
7:55 AM,42.8,41.0,93,29.79,10.0,ESE,4.6,-,0.02,Rain,Light Rain,120,2012-12-12 14:55:00
8:15 AM,42.8,41.0,93,29.79,7.0,SE,5.8,-,N/A,,Overcast,140,2012-12-12 15:15:00
8:35 AM,42.8,41.0,93,29.79,10.0,SSE,5.8,-,N/A,,Overcast,150,2012-12-12 15:35:00
8:55 AM,42.8,41.0,93,29.80,10.0,SSE,4.6,-,N/A,,Light Drizzle,150,2012-12-12 15:55:00
9:15 AM,42.8,41.0,93,29.81,10.0,Calm,Calm,-,N/A,,Overcast,0,2012-12-12 16:15:00
9:35 AM,42.8,41.0,93,29.82,10.0,NW,4.6,-,N/A,Rain,Light Rain,320,2012-12-12 16:35:00
10:15 AM,42.8,41.0,93,29.83,1.5,ENE,4.6,-,0.04,Rain,Heavy Rain,60,2012-12-12 17:15:00
10:35 AM,42.8,41.0,93,29.84,5.0,NE,3.5,-,0.06,Rain,Rain,50,2012-12-12 17:35:00
10:55 AM,42.8,41.0,93,29.85,7.0,East,4.6,-,0.07,Rain,Light Rain,80,2012-12-12 17:55:00
11:15 AM,42.8,41.0,93,29.86,10.0,East,3.5,-,N/A,,Light Drizzle,100,2012-12-12 18:15:00
11:35 AM,44.6,42.8,93,29.86,10.0,Calm,Calm,-,N/A,,Mostly Cloudy,0,2012-12-12 18:35:00
11:55 AM,44.6,41.0,87,29.86,10.0,Calm,Calm,-,N/A,,Overcast,0,2012-12-12 18:55:00
12:15 PM,44.6,42.8,93,29.86,10.0,Calm,Calm,-,N/A,,Mostly Cloudy,0,2012-12-12 19:15:00
12:35 PM,46.4,42.8,87,29.86,10.0,Calm,Calm,-,N/A,,Scattered Clouds,0,2012-12-12 19:35:00
12:55 PM,48.2,42.8,82,29.86,10.0,Calm,Calm,-,N/A,,Scattered Clouds,0,2012-12-12 19:55:00
1:15 PM,48.2,42.8,82,29.86,10.0,Calm,Calm,-,N/A,,Overcast,0,2012-12-12 20:15:00
1:35 PM,48.2,42.8,82,29.86,10.0,Calm,Calm,-,N/A,Rain,Light Rain,0,2012-12-12 20:35:00
1:55 PM,48.2,42.8,82,29.86,10.0,Calm,Calm,-,N/A,,Light Drizzle,0,2012-12-12 20:55:00
2:15 PM,48.2,42.8,82,29.86,7.0,Calm,Calm,-,N/A,Rain,Light Rain,0,2012-12-12 21:15:00
2:35 PM,48.2,42.8,82,29.86,4.0,Calm,Calm,-,0.01,Rain,Light Rain,0,2012-12-12 21:35:00
2:55 PM,46.4,44.6,93,29.87,2.5,Calm,Calm,-,0.04,Rain,Rain,0,2012-12-12 21:55:00
3:15 PM,48.2,44.6,87,29.87,10.0,West,3.5,-,0.01,,Overcast,270,2012-12-12 22:15:00
3:35 PM,48.2,44.6,87,29.87,10.0,Calm,Calm,-,0.01,,Overcast,0,2012-12-12 22:35:00
3:55 PM,46.4,42.8,87,29.88,10.0,SSE,3.5,-,0.01,,Scattered Clouds,150,2012-12-12 22:55:00
4:15 PM,46.4,42.8,87,29.89,10.0,Calm,Calm,-,N/A,,Mostly Cloudy,0,2012-12-12 23:15:00
4:35 PM,46.4,42.8,87,29.89,10.0,Calm,Calm,-,N/A,,Overcast,0,2012-12-12 23:35:00
4:55 PM,46.4,42.8,87,29.90,10.0,East,3.5,-,N/A,,Scattered Clouds,90,2012-12-12 23:55:00
5:15 PM,44.6,41.0,87,29.90,10.0,NE,4.6,-,N/A,,Mostly Cloudy,50,2012-12-13 00:15:00
5:35 PM,44.6,42.8,93,29.91,10.0,Calm,Calm,-,N/A,,Overcast,0,2012-12-13 00:35:00
5:55 PM,44.6,42.8,93,29.91,10.0,ESE,3.5,-,N/A,,Overcast,120,2012-12-13 00:55:00
6:15 PM,44.6,42.8,93,29.92,10.0,SE,3.5,-,N/A,,Overcast,140,2012-12-13 01:15:00
6:35 PM,42.8,42.8,100,29.93,10.0,Calm,Calm,-,N/A,,Overcast,0,2012-12-13 01:35:00
6:55 PM,42.8,42.8,100,29.93,10.0,Calm,Calm,-,N/A,,Mostly Cloudy,0,2012-12-13 01:55:00
7:15 PM,42.8,42.8,100,29.93,10.0,Calm,Calm,-,N/A,,Mostly Cloudy,0,2012-12-13 02:15:00
7:35 PM,42.8,41.0,93,29.93,10.0,Calm,Calm,-,N/A,,Mostly Cloudy,0,2012-12-13 02:35:00
7:55 PM,42.8,41.0,93,29.93,10.0,Calm,Calm,-,N/A,,Scattered Clouds,0,2012-12-13 02:55:00
8:15 PM,42.8,41.0,93,29.94,7.0,Calm,Calm,-,N/A,,Mostly Cloudy,0,2012-12-13 03:15:00
8:35 PM,41.0,39.2,93,29.95,1.5,Calm,Calm,-,N/A,,Overcast,0,2012-12-13 03:35:00
8:55 PM,39.2,39.2,100,29.96,1.0,Calm,Calm,-,N/A,,Overcast,0,2012-12-13 03:55:00
9:15 PM,41.0,41.0,100,29.97,3.0,Calm,Calm,-,N/A,,Overcast,0,2012-12-13 04:15:00
9:35 PM,41.0,41.0,100,29.98,5.0,Calm,Calm,-,N/A,,Overcast,0,2012-12-13 04:35:00
9:55 PM,41.0,41.0,100,29.97,7.0,SE,3.5,-,N/A,,Overcast,130,2012-12-13 04:55:00
10:15 PM,39.2,39.2,100,29.98,7.0,Calm,Calm,-,N/A,,Mostly Cloudy,0,2012-12-13 05:15:00
10:35 PM,39.2,39.2,100,29.98,7.0,Calm,Calm,-,N/A,,Mostly Cloudy,0,2012-12-13 05:35:00
10:55 PM,39.2,39.2,100,29.99,3.0,Calm,Calm,-,N/A,,Mostly Cloudy,0,2012-12-13 05:55:00
11:15 PM,37.4,37.4,100,29.99,7.0,Calm,Calm,-,N/A,,Mostly Cloudy,0,2012-12-13 06:15:00
11:35 PM,39.2,39.2,100,30.00,5.0,Calm,Calm,-,N/A,,Scattered Clouds,0,2012-12-13 06:35:00
11:55 PM,37.4,37.4,100,30.01,1.2,Calm,Calm,-,N/A,,Mist,0,2012-12-13 06:55:00